• MPC Preparation (Info)

  • MPEC 2016-L108: 2016 LW47

    The following Minor Planet Electronic Circular may be linked-to from your own Web pages, but must not otherwise be redistributed electronically.

    A form allowing access to any MPEC is at the bottom of this page.


    Read MPEC 2016-L107 Read MPEC 2016-L109


    M.P.E.C. 2016-L108                               Issued 2016 June 12, 15:29 UT
    
         The Minor Planet Electronic Circulars contain information on unusual
             minor planets and routine data on comets.  They are published
        on behalf of Division F of the International Astronomical Union by the
              Minor Planet Center, Smithsonian Astrophysical Observatory,
                              Cambridge, MA 02138, U.S.A.
    
                 Prepared using the Tamkin Foundation Computer Network
    
                                  MPC@CFA.HARVARD.EDU
                URL https://www.minorplanetcenter.net/    ISSN 1523-6714
    
                                       2016 LW47
    
    Observations:
         K16L47W* C2016 06 08.44068 16 39 07.370-22 18 21.45         21.9 wLEL108F51
         K16L47W  C2016 06 08.45096 16 39 06.151-22 17 39.76         21.7 wLEL108F51
         K16L47W  C2016 06 08.46069 16 39 04.985-22 16 59.78         21.7 wLEL108F51
         K16L47W  C2016 06 08.47045 16 39 03.815-22 16 19.75         21.7 wLEL108F51
         K16L47W KC2016 06 09.30303416 37 32.83 -21 19 56.8          21.5 RtEL108W86
         K16L47W KC2016 06 09.31129816 37 31.92 -21 19 23.6          22.8 RtEL108W86
         K16L47W KC2016 06 09.31439616 37 31.57 -21 19 11.1          22.1 RtEL108W86
         K16L47W KC2016 06 09.31852816 37 31.12 -21 18 54.4          21.6 RtEL108W86
         K16L47W 2C2016 06 10.43778516 35 35.954-20 05 44.92         21.6 RtEL108568
         K16L47W 2C2016 06 10.43988816 35 35.729-20 05 36.75         21.7 RtEL108568
         K16L47W 2C2016 06 10.44089916 35 35.627-20 05 32.82         21.9 RtEL108568
         K16L47W 2C2016 06 11.43205016 33 58.552-19 02 23.71         22.0 RtEL108568
         K16L47W 2C2016 06 11.43304616 33 58.446-19 02 19.96         22.1 RtEL108568
    
    Observer details:
    568 Mauna Kea.  Observers D. Hung, D. J. Tholen, Y. Ramanjooloo.  Measurer
        D. J. Tholen.  2.24-m University of Hawaii reflector.
    F51 Pan-STARRS 1, Haleakala.  Observers B. Gibson, T. Goggia, N. Primak,
        A. Schultz, M. Willman.  Measurers K. Chambers, S. Chastel, L. Denneau,
        H. Flewelling, M. Huber, E. Lilly, E. Magnier, R. Wainscoat, C. Waters,
        R. Weryk.  1.8-m Ritchey-Chretien + CCD.
    W86 Cerro Tololo-LCOGT B.  Observers T. Lister, S. Greenstreet, E. Gomez.
        Measurer T. Lister.  1.0-m f/8 Ritchey-Chretien + CCD.
    
    Orbital elements:
    2016 LW47                                                Earth MOID = 0.3664 AU
    Epoch 2016 July 31.0 TT = JDT 2457600.5                 MPC
    M  69.88170              (2000.0)            P               Q
    n   0.44356428     Peri.  276.43305     -0.82788358     -0.15079942
    a   1.7028054      Node   255.95950     +0.30411135     -0.93000087
    e   0.3401613      Incl.   33.84069     -0.47130147     -0.33519832
    P   2.22           H   22.5           G   0.15           U   7
    Residuals in seconds of arc
    160608 F51  0.0   0.3+    160609 W86  0.1+  0.3-    160610 568  0.1+  0.0
    160608 F51  0.1+  0.1-    160609 W86  0.0   0.2-    160611 568  0.0   0.0
    160608 F51  0.1+  0.0     160609 W86  0.2+  0.2-    160611 568  0.0   0.0
    160608 F51  0.0   0.0     160610 568  0.1-  0.0
    160609 W86  0.1-  0.2-    160610 568  0.0   0.0
    
    Ephemeris:
    2016 LW47                a,e,i = 1.70, 0.34, 34                  q = 1.1236
    Date    TT    R. A. (2000) Decl.     Delta      r     Elong.  Phase     V
    2016 05 13    17 59 33.4 -54 17 46   0.4147  1.3282   132.9    33.8    22.6
    ...
    2016 05 28    17 06 25.7 -36 35 15   0.3969  1.3961   161.8    13.1    22.0
    ...
    2016 06 05    16 46 02.6 -26 21 46   0.4196  1.4335   175.9     2.9    21.7
    ...
    2016 06 11    16 34 40.6 -19 29 33   0.4519  1.4619   169.4     7.4    22.1
    2016 06 12    16 33 05.5 -18 26 53   0.4585  1.4667   167.7     8.5    22.2
    2016 06 13    16 31 35.4 -17 26 06   0.4653  1.4714   166.0     9.6    22.3
    ...
    2016 06 19    16 24 14.5 -12 02 03   0.5125  1.5000   156.5    15.7    22.8
    ...
    2016 06 27    16 18 19.2 -06 33 48   0.5888  1.5381   145.4    22.0    23.3
    ...
    2016 07 12    16 16 26.5 -00 28 20   0.7610  1.6090   129.1    29.3    24.2
    
    A. U. Tomatic                (C) Copyright 2016 MPC           M.P.E.C. 2016-L108
    

    Read MPEC 2016-L107 Read MPEC 2016-L109


    MPEC number:

    Enter an MPEC number in one of the following forms:

    • 1997-B01 (the full form)
    • J97B01 (the packed version of the full form)
    • B01 (the abbreviated form)